Regional Weather Roundup
Issued by NWS

Home | Current Version | Previous Version | Text Only | Print | Product List | Glossary On
Versions: 1 2 3 4 5 6 7 8 9 10 11 12 13 14 15 16 17 18 19 20 21 22 23 24 25 26 27 28 29 30 31 32 33 34 35 36 37 38 39 40 41 42 43 44 45 46 47 48 49 50
000
ASUS43 KMPX 020701
RWRMN
WEATHER ROUNDUP FOR MINNESOTA
NATIONAL WEATHER SERVICE TWIN CITIES/CHANHASSEN MN
100 AM CST MON MAR 02 2015


NOTE: "FAIR" INDICATES FEW OR NO CLOUDS BELOW 12,000 FEET WITH NO
SIGNIFICANT WEATHER AND/OR OBSTRUCTIONS TO VISIBILITY. N/A MEANS
CURRENT SKY AND/OR WEATHER CONDITIONS ARE NOT AVAILABLE.

MNZ060>063-068>070-020800-
   Twin Cities Metro

CITY           SKY/WX    TMP DP  RH WIND       PRES   REMARKS
TWIN CITIES    CLEAR     18   8  65 NW10      30.42R WCI   6
ST PAUL        CLEAR     18   8  65 NW13      30.44R WCI   5
CRYSTAL        CLEAR     17   8  67 NW7       30.41R WCI   8
BLAINE         CLEAR     18  10  73 NW9       30.41R WCI   6
EDEN PRAIRIE   CLEAR     16   8  71 NW7       30.41R WCI   6
SOUTH ST PAUL  CLEAR     19  10  66 NW8       30.42R WCI   9
LAKE ELMO      FAIR      19  10  68 NW8       30.41R WCI   9
$$
MNZ001>005-007-008-013>017-022>024-027-028-020800-
   Northwest Minnesota

CITY           SKY/WX    TMP DP  RH WIND       PRES   REMARKS
BEMIDJI        CLOUDY     6   3  88 SW8       30.31S WCI  -7
ROSEAU         PTCLDY     9   3  78 W7        30.31R WCI  -3
WARROAD        CLEAR      5   1  85 W9        30.30R WCI  -9
THIEF RVR FALL CLEAR      3   1  92 W8        30.33S WCI -10
CROOKSTON      FAIR       3   0  85 W7        30.38S WCI  -9
FOSSTON        MOCLDY     3   0  85 SW3       30.34F
DETROIT LAKES  PTCLDY     7   5  92 CALM      30.37R
MOORHEAD       FAIR       7   5  92 SW6       30.41S WCI  -3
PARK RAPIDS    CLEAR      2  -3  80 NW3       30.33S
MAHNOMEN       CLOUDY     1  -3  85 S6        30.36S WCI -11
$$
MNZ006-009>011-018-025>026-020800-
   North Central Minnesota

CITY           SKY/WX    TMP DP  RH WIND       PRES   REMARKS
BAUDETTE       CLEAR      5   0  79 W6        30.27R WCI  -6
FLAG ISLAND    CLEAR      7   1  78 W12       30.27R WCI  -9
INTL FALLS     PTCLDY     7   2  80 W7        30.26R WCI  -5
WASKISH        CLEAR      7   3  85 SW9       30.30R WCI  -7
BIG FORK       CLEAR      5   1  85 W3        30.29S
LONGVILLE      CLEAR      7   3  85 W5        30.33S WCI  -2
GRAND RAPIDS   CLEAR      9   3  78 W7        30.30S WCI  -3
CRANE LAKE     CLOUDY    10   3  72 W5        30.28S WCI   2
ORR            CLOUDY     9   1  72 W7        30.24S WCI  -3
COOK           PTCLDY     7   3  85 W6        30.27S WCI  -3
WALKER         FAIR       7   3  86 W6        30.33S WCI  -4
$$
MNZ012-019>021-037-020800-
   Northeast Minnesota

CITY           SKY/WX    TMP DP  RH WIND       PRES   REMARKS
DULUTH         FAIR      10   3  73 W10       30.29R WCI  -4
ELY            MOCLDY     9   3  78 W7        30.23S WCI  -3
HIBBING        CLEAR      9   3  77 W8        30.28R WCI  -3
EVELETH        CLEAR     10   5  79 W5        30.28S WCI   2
DULUTH HARBOR  CLEAR     14   7  73 W13       30.37R WCI   0
SILVER BAY     CLEAR     12   5  73 W6        30.25R WCI   3
GRAND MARAIS     N/A     15   2  56 VRB5      30.24R WCI   8
G MARAIS ARPRT FAIR       9  -2  61 W12G20    30.13R WCI  -6
$$
MNZ029>031-032-039>041-046>048-054>057-064-020800-
   West Central Minnesota

CITY           SKY/WX    TMP DP  RH WIND       PRES   REMARKS
FERGUS FALLS   CLEAR      7   1  78 CALM      30.44S
MORRIS         CLEAR      7   1  78 W8        30.42R WCI  -6
ALEXANDRIA     CLEAR      7   4  87 W7        30.39S WCI  -5
ELBOW LAKE     FAIR       7   4  86 W6        30.41S WCI  -3
WADENA         CLEAR      3   1  92 W5        30.37S WCI  -6
APPLETON       CLEAR      7   1  78 SW6       30.45R WCI  -3
BENSON         CLEAR      7   1  78 NW5       30.43R WCI  -2
ORTONVILLE     CLEAR     10   3  72 W6        30.43S WCI   1
MADISON        CLEAR     10   5  79 W7        30.46R WCI   0
WILLMAR        FAIR       9   5  85 NW3       30.44R
$$
MNZ033>034-036-042>043-049>051-058-059-020800-
   Central Minnesota

CITY           SKY/WX    TMP DP  RH WIND       PRES   REMARKS
ST CLOUD       CLEAR     12   6  77 W6        30.41R WCI   3
SAUK CENTRE    FAIR       8   5  87 W5        30.41R WCI  -1
PAYNESVILLE    CLEAR      9   7  89 SW3       30.42R
PINE RIVER     CLEAR      1   0  92 CALM      30.38R
BRAINERD       CLEAR      8   5  87 W7        30.37R WCI  -3
STAPLES        CLEAR      0  -2  92 W6        30.37S WCI -12
LONG PRAIRIE   FAIR      10   7  85 W6        30.39S WCI   1
LITTLE FALLS   CLEAR      9   5  85 CALM      30.41R
LITCHFIELD     CLEAR     12  10  92 NW5       30.42R WCI   4
MAPLE LAKE     CLEAR     15  11  83 NW6       30.43R WCI   6
$$
MNZ037-044-045-052-053-020800-
   East Central Minnesota

CITY           SKY/WX    TMP DP  RH WIND       PRES   REMARKS
PRINCETON      CLEAR     12   7  79 W5        30.41R WCI   4
MORA           CLEAR     12   5  73 NW5       30.40R WCI   4
CAMBRIDGE      CLEAR     16   5  62 W6        30.39R WCI   7
RUSH CITY      FAIR      14   6  71 NW6       30.40R WCI   5
MOOSE LAKE     CLEAR     10   5  79 CALM      30.34R
HINCKLEY       FAIR       9   5  85 W6        30.38R WCI  -1
CLOQUET        CLEAR     10   3  72 W7        30.31R WCI   0
MCGREGOR       CLEAR     10   5  79 CALM      30.35R
$$
MNZ071>073-080-081-089-090-097-098-020800-
   Southwest Minnesota

CITY           SKY/WX    TMP DP  RH WIND       PRES   REMARKS
MONTEVIDEO     CLEAR     10   7  85 NW3       30.46R
GRANITE FALLS  CLEAR      7   4  89 W6        30.47R WCI  -4
CANBY          CLEAR     11   6  81 SW6       30.46S WCI   1
MARSHALL       CLEAR     10   3  72 W7        30.46S WCI   0
REDWOOD FALLS  CLEAR     12   7  80 W9        30.46R WCI   0
OLIVIA         CLEAR     10   9  92 W7        30.44R WCI   0
PIPESTONE      PTCLDY    10   9  92 N3        30.41F
WINDOM         CLEAR     10   7  85 W6        30.45R WCI   1
WORTHINGTON    CLEAR     12   7  79 NW8       30.45S WCI   1
JACKSON        CLEAR     16  10  79 NW9       30.44R WCI   4
TRACY          CLEAR     14   9  79 W5        30.45R WCI   6
SLAYTON        CLEAR     11   6  81 CALM      30.43F
$$
MNZ065>067-074>077-082>085-091>093-020800-
   South Central Minnesota

CITY           SKY/WX    TMP DP  RH WIND       PRES   REMARKS
MANKATO        CLEAR     18   9  68 NW10      30.44R WCI   6
NEW ULM        CLEAR     10   7  85 W8        30.46R WCI  -1
ST JAMES       CLEAR     16  10  79 W10       30.47R WCI   3
FAIRMONT       CLEAR     14   7  73 W9        30.44R WCI   2
GLENCOE        CLEAR     14  10  87 W6        30.43R WCI   5
FARIBAULT      CLEAR     16  10  79 W9        30.42R WCI   4
OWATONNA       CLEAR     12   9  85 W10       30.41R WCI  -1
WASECA         CLEAR     12   7  79 W8        30.43R WCI   1
ALBERT LEA     CLEAR     16  10  79 NW8       30.42R WCI   5
$$
MNZ078>079-086>088-094>096-020800-
   Southeast Minnesota

CITY           SKY/WX    TMP DP  RH WIND       PRES   REMARKS
ROCHESTER      CLEAR     15   9  76 NW16      30.38R WCI  -1
RED WING       CLEAR     19   9  63 NW3       30.40R
STANTON        CLEAR     17  10  75 NW8       30.40R WCI   6
DODGE CENTER   PTCLDY    18  10  73 NW10G17   30.38R WCI   6
WINONA         PTCLDY    23  16  74 NW9       30.40R WCI  13
AUSTIN         CLEAR     16  10  79 NW9       30.41R WCI   4
PRESTON        CLEAR     17  10  77 NW14      30.37R WCI   2
$$
ABBREVIATIONS USED IN REMARKS
   TC - TEMPERATURES IN CELSIUS
  WCI - WIND CHILL INDEX
   HX - HEAT INDEX
  VSB - VISIBILITY
$$


USA.gov is the U.S. government's official web portal to all federal, state and local government web resources and services.